TIMRA/MIDLANDA current weather conditions

sailwx.info

Wind from 010 at 6 knots

Air temperature -8.0° C
Visibility: greater than 5.4 NM
Dewpoint -12.0° C
Present weather: Light snow.

Last reported at 2018-Feb-23 12:50 UTC.
Time now 2018-Feb-23 14:29 UTC

Location: N 62°32' E 017°27'.
View on Google Maps.

See reports from other nearby stations

  
Tides and Currents Weather Stations Pressure Air Temp Water Temp Dewpoint Dewpoint Depression Visibility Wind Speed Wind Dir Waves Ship Positions
date/time (UTC)wind fromknots sea level pressurealtimeterstation pressurevisibilityair tempwater tempwave heightnotes
2018-Feb-23 13:50 030 5 5.4-8.0 Light snow.
2018-Feb-23 13:20 040 6 5.4-8.0 Light snow.
2018-Feb-23 12:50 010 6 5.4-8.0 Light snow.
2018-Feb-23 12:20 010 6 5.4-8.0 Light snow.
2018-Feb-23 11:50 040 6 5.4-8.0 Light snow.
2018-Feb-23 11:20 050 8 5.4-8.0 Light snow.
2018-Feb-23 10:50 020 6 5.4-8.0 Light snow.
2018-Feb-23 10:20 4.3-8.0 Light snow.
2018-Feb-23 09:50 020 6 4.9-9.0 Light snow.
2018-Feb-23 09:20 030 7 5.4-9.0 Light snow.
2018-Feb-23 08:50 350 4 5.4-9.0
2018-Feb-23 08:20 310 4 5.4-9.0
2018-Feb-23 07:50 320 5 5.4-10.0
2018-Feb-23 07:20 320 6 5.4-10.0
2018-Feb-23 06:50 310 5 5.4-10.0
2018-Feb-23 06:20 320 5 5.4-10.0
2018-Feb-23 05:50 290 2 5.4-10.0
2018-Feb-23 05:20 300 2 5.4-10.0
2018-Feb-23 04:50 5.4-10.0
2018-Feb-23 04:20 330 4 5.4-10.0
2018-Feb-23 03:50 310 2 5.4-10.0
2018-Feb-23 03:20 350 4 5.4-9.0
2018-Feb-23 02:50 5.4-9.0 Light freezing rain.
2018-Feb-23 02:20 5.4-9.0
2018-Feb-23 01:50 5.4-9.0
2018-Feb-23 01:20 020 2 5.4-8.0
2018-Feb-23 00:50 5.4-9.0
2018-Feb-23 00:20 320 2 5.4-8.0 Snow grains.
2018-Feb-22 23:50 330 4 1.3-9.0 Light snow.
2018-Feb-22 23:20 5.4-9.0
2018-Feb-22 22:50 5.4-9.0 Light freezing drizzle.
2018-Feb-22 22:20 310 4 5.4-8.0
2018-Feb-22 21:50 310 2 5.4-10.0
2018-Feb-22 21:20 5.4-10.0
2018-Feb-22 20:50 360 1 5.4-10.0
2018-Feb-22 20:20 310 2 5.4-10.0
2018-Feb-22 19:50 350 0 5.4-10.0
2018-Feb-22 19:20 300 1 5.4-9.0
2018-Feb-22 18:50 320 1 5.4-9.0
2018-Feb-22 18:20 330 1 5.4-10.0
2018-Feb-22 17:50 5.4-9.0
2018-Feb-22 17:20 320 0 5.4-8.0
2018-Feb-22 16:50 5.4-8.0
2018-Feb-22 16:20 5.4-7.0
2018-Feb-22 15:50 5.4-7.0
2018-Feb-22 15:20 150 1 5.4-6.0 Snow grains.
2018-Feb-22 14:50 5.4-6.0
2018-Feb-22 14:20 5.4-5.0
2018-Feb-22 13:50 5.4-5.0
2018-Feb-22 13:20 5.4-5.0
2018-Feb-22 12:50 260 2 5.4-6.0
2018-Feb-22 12:20 310 1 5.4-6.0
2018-Feb-22 11:50 320 1 5.4-6.0
2018-Feb-22 11:20 5.4-7.0
2018-Feb-22 10:50 300 2 5.4-7.0
2018-Feb-22 10:20 5.4-7.0 Light snow.
2018-Feb-22 09:50 5.4-8.0 Light snow.
2018-Feb-22 09:20 5.4-9.0 Light snow.
2018-Feb-22 08:50 300 2 5.4-9.0 Light snow.
2018-Feb-22 08:20 310 2 5.4-10.0 Light snow.
2018-Feb-22 07:50 310 5 2.7-10.0 Light snow.
2018-Feb-22 07:20 310 4 4.3-10.0 Light snow.
2018-Feb-22 06:50 310 6 4.3-10.0 Light snow.
2018-Feb-22 06:24 310 5 4.3-10.0 Light snow.
2018-Feb-22 06:20 310 5 3.8-10.0 Light snow.
2018-Feb-22 05:50 310 4 5.4-11.0 Light snow.
2018-Feb-22 05:20 330 2 4.3-11.0 Light snow.
2018-Feb-22 04:50 320 2 5.4-10.0 Light snow.
2018-Feb-22 04:20 300 4 2.6-10.0 Light snow.
2018-Feb-22 03:50 300 6 2.7-10.0 Light snow.
2018-Feb-22 03:20 300 5 2.2-10.0 Light snow.
2018-Feb-22 02:50 310 4 5.4-10.0 Precipitation.
2018-Feb-22 02:20 310 2 4.3-10.0 Light snow.
2018-Feb-22 01:50 300 4 5.4-10.0 Light snow.
2018-Feb-22 01:20 300 4 3.2-11.0 Light snow.
2018-Feb-22 00:50 310 5 4.3-11.0 Light snow.
2018-Feb-22 00:20 300 2 5.4-11.0 Light snow.
2018-Feb-21 23:50 300 4 5.4-11.0 Light snow.
2018-Feb-21 23:20 300 4 5.4-11.0 Light snow.
2018-Feb-21 22:50 310 5 5.4-11.0 Light snow.
2018-Feb-21 22:20 300 5 5.4-11.0 Light snow.
2018-Feb-21 21:50 310 4 5.4-11.0 Light snow.
2018-Feb-21 21:20 310 5 5.4-11.0
2018-Feb-21 20:50 310 5 5.4-11.0
2018-Feb-21 20:20 310 6 5.4-11.0
2018-Feb-21 19:50 310 5 5.4-11.0
2018-Feb-21 19:20 310 5 5.4-11.0
2018-Feb-21 18:50 310 5 5.4-11.0
2018-Feb-21 18:20 310 5 5.4-11.0
2018-Feb-21 17:50 310 6 5.4-11.0
2018-Feb-21 17:20 290 4 5.4-11.0
2018-Feb-21 16:50 310 5 5.4-11.0
2018-Feb-21 16:20 310 2 5.4-10.0
2018-Feb-21 15:50 020 2 5.4-10.0 Light snow.
2018-Feb-21 15:20 010 2 5.4-10.0
2018-Feb-21 14:50 350 2 5.4-10.0
2018-Feb-21 14:20 040 4 5.4-9.0